SUCEAVA/SALCEA current weather conditions

sailwx.info

Wind from 330 at 12 knots

Air temperature 8.0° C
Visibility: greater than 5.4 NM
Dewpoint -6.0° C

Last reported at 2020-Jan-22 13:30 UTC.
Time now 2020-Jan-22 15:26 UTC

Location: N 47°41' E 026°21'.
View on Google Maps.

See reports from other nearby stations

  
Tides and Currents Weather Stations Pressure Air Temp Water Temp Dewpoint Dewpoint Depression Visibility Wind Speed Wind Dir Waves Ship Positions
date/time (UTC)wind fromknots sea level pressurealtimeterstation pressurevisibilityair tempwater tempwave heightnotes
2020-Jan-22 14:30 270 7 5.4 5.0
2020-Jan-22 14:00 290 12 5.4 8.0
2020-Jan-22 13:30 330 12 5.4 8.0
2020-Jan-22 13:00 350 13 5.4 8.0
2020-Jan-22 12:30 350 13 5.4 9.0
2020-Jan-22 12:00 340 15 5.411.0
2020-Jan-22 11:30 280 7 5.412.0
2020-Jan-22 11:00 260 12 5.410.0
2020-Jan-22 10:30 260 13 5.410.0
2020-Jan-22 10:00 260 13 5.410.0
2020-Jan-22 09:30 250 12 5.4 9.0
2020-Jan-22 09:00 240 9 5.4 7.0
2020-Jan-22 08:30 220 6 5.4 6.0
2020-Jan-22 08:00 240 9 5.4 5.0
2020-Jan-22 07:30 230 8 5.4 3.0
2020-Jan-22 07:00 230 9 5.4 1.0
2020-Jan-22 06:30 240 12 5.4 1.0
2020-Jan-22 06:00 240 9 5.4 1.0
2020-Jan-22 05:30 250 9 5.4-0.0
2020-Jan-22 05:00 230 12 5.4-0.0
2020-Jan-22 04:30 240 11 5.4-0.0
2020-Jan-22 04:00 250 11 5.4 1.0
2020-Jan-22 03:30 250 9 5.4 1.0
2020-Jan-22 03:00 250 9 5.4 1.0
2020-Jan-22 02:30 250 7 5.4 1.0
2020-Jan-22 02:00 250 9 5.4 1.0
2020-Jan-22 01:30 250 9 5.4 1.0
2020-Jan-22 01:00 250 7 5.4 1.0
2020-Jan-22 00:30 250 11 5.4 2.0
2020-Jan-22 00:00 250 9 5.4 1.0
2020-Jan-21 23:30 240 9 5.4 1.0
2020-Jan-21 23:00 250 9 5.4 1.0
2020-Jan-21 22:30 250 9 5.4 1.0
2020-Jan-21 22:00 250 11 5.4 2.0
2020-Jan-21 21:30 250 9 5.4 1.0
2020-Jan-21 21:00 230 6 5.4-0.0
2020-Jan-21 20:30 240 7 5.4 1.0
2020-Jan-21 20:00 230 8 5.4 2.0
2020-Jan-21 19:30 230 9 5.4 1.0
2020-Jan-21 19:00 240 11 5.4 1.0
2020-Jan-21 18:30 230 11 5.4 2.0
2020-Jan-21 18:00 230 9 5.4 2.0
2020-Jan-21 17:30 250 9 5.4 2.0
2020-Jan-21 17:00 250 9 5.4 3.0
2020-Jan-21 16:30 240 7 5.4 2.0
2020-Jan-21 16:00 260 7 5.4 4.0
2020-Jan-21 15:30 280 8 5.4 4.0
2020-Jan-21 15:00 280 9 5.4 5.0
2020-Jan-21 14:30 310 12 5.4 7.0
2020-Jan-21 14:00 320 15 5.4 7.0
2020-Jan-21 13:30 320 13 5.4 7.0
2020-Jan-21 13:00 310 11 5.4 7.0
2020-Jan-21 12:30 310 13 5.4 7.0
2020-Jan-21 12:00 300 12 5.4 6.0
2020-Jan-21 11:30 260 7 5.4 4.0
2020-Jan-21 11:00 270 9 5.4 4.0
2020-Jan-21 10:30 300 6 5.4 4.0
2020-Jan-21 10:00 260 5 5.4-0.0
2020-Jan-21 09:30 270 7 5.4-0.0
2020-Jan-21 09:00 280 7 5.4 1.0
2020-Jan-21 08:30 320 6 5.4 1.0
2020-Jan-21 08:00 300 7 5.4-0.0
2020-Jan-21 07:30 310 7 5.4-0.0
2020-Jan-21 07:00 310 7 5.4-1.0
2020-Jan-21 06:30 280 5 5.4-2.0
2020-Jan-21 06:00 300 6 5.4-2.0
2020-Jan-21 05:30 260 6 5.4-3.0
2020-Jan-21 05:00 290 6 5.4-2.0
2020-Jan-21 04:30 290 6 5.4-2.0
2020-Jan-21 04:00 290 6 5.4-1.0
2020-Jan-21 03:30 310 9 5.4-1.0
2020-Jan-21 03:00 310 9 5.4-1.0
2020-Jan-21 02:30 310 12 5.4-0.0
2020-Jan-21 02:00 310 11 5.4-0.0
2020-Jan-21 01:30 320 13 5.4-0.0
2020-Jan-21 01:00 320 14 5.4-0.0
2020-Jan-21 00:30 320 13 5.4-0.0
2020-Jan-21 00:00 320 12 5.4-0.0
2020-Jan-20 23:30 320 13 5.4-0.0
2020-Jan-20 23:00 320 15 5.4-0.0
2020-Jan-20 22:30 330 13 5.4-0.0
2020-Jan-20 22:00 320 12 5.4-0.0
2020-Jan-20 21:30 320 7 5.4-0.0
2020-Jan-20 21:00 310 6 5.4-0.0
2020-Jan-20 20:30 310 7 5.4-0.0
2020-Jan-20 20:00 310 6 5.4-0.0
2020-Jan-20 19:30 290 6 5.4-0.0
2020-Jan-20 19:00 290 8 5.4-0.0
2020-Jan-20 18:30 300 7 5.4-1.0
2020-Jan-20 18:00 300 7 5.4-1.0
2020-Jan-20 17:30 310 7 5.4-1.0
2020-Jan-20 17:00 320 9 5.4-1.0
2020-Jan-20 16:30 320 8 5.4-1.0
2020-Jan-20 16:00 330 8 5.4-2.0
2020-Jan-20 15:30 330 13 5.4-2.0
2020-Jan-20 15:00 330 14 5.4-1.0